Charleroi, Belgium

12:58 PM CEST on April 29, 2017 (GMT +0200)
Brussels South

Weather History for EBCI - December, 2011

Change the Weather History Date:

Friday, December 30, 2011

  Actual Average Record
Temperature  
Mean Temperature 40 °F -  
Max Temperature 42 °F 40 °F 53 °F (2002)
Min Temperature 37 °F 31 °F 21 °F (2008)
Degree Days  
Heating Degree Days 26    
Moisture  
Dew Point 34 °F    
Average Humidity 79    
Maximum Humidity 93    
Minimum Humidity 67    
Precipitation  
Precipitation 0.08 in - - ()
Sea Level Pressure  
Sea Level Pressure 30.00 in    
Wind  
Wind Speed 10 mph ()    
Max Wind Speed 14 mph    
Max Gust Speed 25 mph    
Visibility 6.5 miles    
Events Rain    
Averages and records for this station are not official NWS values.
T = Trace of Precipitation, MM = Missing Value Source: Averaged Metar Reports

Daily Weather History Graph

Daily Weather History Graph

Search for Another Location

Airport or City:

Trip Planner

Search our weather history database for the weather conditions in past years. The results will help you decide how hot, cold, wet, or windy it might be!

Date:

Astronomy

Dec. 30, 2011 Rise Set
Actual Time 8:42 AM CET 4:46 PM CET
Civil Twilight 8:04 AM CET 5:25 PM CET
Nautical Twilight 7:22 AM CET 6:07 PM CET
Astronomical Twilight 6:42 AM CET 6:46 PM CET
Moon 11:16 AM CET (12/30) 11:49 PM CET (12/30)
Length of Visible Light 9h 21m
Length of Day
8h 03m
Waxing Crescent, 33% of the Moon is Illuminated
Dec 30
Waxing Crescent
Jan 1
First Quarter
Jan 9
Full
Jan 16
Last Quarter
Jan 23
New

Hourly Weather History & Observations

Time (CET) Temp. Windchill Dew Point Humidity Pressure Visibility Wind Dir Wind Speed Gust Speed Precip Events Conditions
12:20 AM 41.0 °F 34.3 °F 37.4 °F 87% 29.89 in 6.2 mi West 11.5 mph - N/A   Partly Cloudy
12:50 AM 41.0 °F 33.5 °F 35.6 °F 81% 29.89 in 6.2 mi West 13.8 mph - N/A   Mostly Cloudy
1:00 AM 42 °F - 36 °F 70% 29.91 in 16 mi West 13.4 mph - -   Partly Cloudy
1:20 AM 41.0 °F 33.5 °F 35.6 °F 81% 29.89 in 6.2 mi West 13.8 mph - N/A   Scattered Clouds
1:50 AM 41.0 °F 34.3 °F 33.8 °F 76% 29.89 in 6.2 mi West 11.5 mph - N/A   Partly Cloudy
2:20 AM 41.0 °F 33.5 °F 33.8 °F 76% 29.89 in 6.2 mi West 13.8 mph - N/A   Partly Cloudy
2:50 AM 41.0 °F 33.9 °F 33.8 °F 76% 29.89 in 6.2 mi West 12.7 mph - N/A   Scattered Clouds
3:20 AM 41.0 °F 34.3 °F 35.6 °F 81% 29.89 in 6.2 mi West 11.5 mph - N/A   Scattered Clouds
3:50 AM 41.0 °F 33.5 °F 33.8 °F 76% 29.89 in 6.2 mi West 13.8 mph - N/A   Scattered Clouds
4:00 AM 40 °F - 35 °F 74% 29.93 in 12 mi West 13.4 mph - -   Partly Cloudy
4:20 AM 41.0 °F 33.9 °F 33.8 °F 76% 29.89 in 6.2 mi West 12.7 mph - N/A   Scattered Clouds
4:50 AM 41.0 °F 33.9 °F 35.6 °F 81% 29.89 in 6.2 mi West 12.7 mph - N/A   Mostly Cloudy
5:20 AM 41.0 °F 33.9 °F 35.6 °F 81% 29.92 in 6.2 mi West 12.7 mph - N/A   Mostly Cloudy
5:50 AM 39.2 °F 32.5 °F 33.8 °F 81% 29.92 in 6.2 mi West 10.4 mph - N/A Rain Light Rain Showers
6:20 AM 39.2 °F 31.6 °F 35.6 °F 87% 29.95 in 6.2 mi WNW 12.7 mph 25.3 mph N/A   Scattered Clouds
6:50 AM 39.2 °F 31.6 °F 33.8 °F 81% 29.95 in 6.2 mi WNW 12.7 mph - N/A   Partly Cloudy
7:00 AM 39 °F - 33 °F 71% 29.98 in 11 mi WNW 13.4 mph - - Rain Light Rain Showers
7:20 AM 39.2 °F 33.0 °F 33.8 °F 81% 29.98 in 6.2 mi WNW 9.2 mph - N/A   Scattered Clouds
7:50 AM 39.2 °F 33.0 °F 32.0 °F 75% 29.98 in 6.2 mi WNW 9.2 mph - N/A   Partly Cloudy
8:20 AM 39.2 °F 33.6 °F 32.0 °F 75% 29.98 in 6.2 mi West 8.1 mph - N/A Rain Light Rain Showers
8:50 AM 39.2 °F 33.0 °F 32.0 °F 75% 30.01 in 6.2 mi West 9.2 mph - N/A   Scattered Clouds
9:20 AM 37.4 °F 30.3 °F 32.0 °F 81% 30.01 in 6.2 mi West 10.4 mph - N/A   Scattered Clouds
9:50 AM 39.2 °F 33.0 °F 32.0 °F 75% 30.04 in 6.2 mi West 9.2 mph - N/A   Scattered Clouds
10:20 AM 39.2 °F 32.5 °F 32.0 °F 75% 30.04 in 6.2 mi West 10.4 mph - N/A   Partly Cloudy
10:50 AM 39.2 °F 33.0 °F 32.0 °F 75% 30.04 in 6.2 mi West 9.2 mph - N/A   Partly Cloudy
11:20 AM 39.2 °F 32.5 °F 33.8 °F 81% 30.04 in 6.2 mi West 10.4 mph - N/A   Scattered Clouds
11:50 AM 41.0 °F 34.7 °F 33.8 °F 76% 30.06 in 6.2 mi West 10.4 mph - N/A   Partly Cloudy
12:20 PM 41.0 °F 34.3 °F 33.8 °F 76% 30.06 in 6.2 mi West 11.5 mph - N/A   Partly Cloudy
12:50 PM 41.0 °F 35.2 °F 33.8 °F 76% 30.06 in 6.2 mi WNW 9.2 mph - N/A   Mostly Cloudy
1:20 PM 41.0 °F 35.2 °F 33.8 °F 76% 30.06 in 6.2 mi WNW 9.2 mph - N/A   Scattered Clouds
1:50 PM 41.0 °F 35.8 °F 32.0 °F 70% 30.06 in 6.2 mi WNW 8.1 mph - N/A   Scattered Clouds
2:20 PM 41.0 °F 34.7 °F 32.0 °F 70% 30.06 in 6.2 mi West 10.4 mph - N/A   Partly Cloudy
2:50 PM 41.0 °F 35.2 °F 33.8 °F 76% 30.06 in 6.2 mi West 9.2 mph - N/A   Scattered Clouds
3:20 PM 41.0 °F 37.1 °F 32.0 °F 70% 30.06 in 6.2 mi West 5.8 mph - N/A   Scattered Clouds
3:50 PM 41.0 °F 36.4 °F 32.0 °F 70% 30.06 in 6.2 mi West 6.9 mph - N/A   Scattered Clouds
4:00 PM 40 °F - 33 °F 67% 30.09 in 14 mi West 6.7 mph - -   Partly Cloudy
4:20 PM 41.0 °F 37.1 °F 33.8 °F 76% 30.06 in 6.2 mi West 5.8 mph - N/A   Scattered Clouds
4:50 PM 39.2 °F 35.0 °F 33.8 °F 81% 30.06 in 6.2 mi West 5.8 mph - N/A   Partly Cloudy
5:20 PM 39.2 °F 35.9 °F 32.0 °F 75% 30.06 in 6.2 mi WSW 4.6 mph - N/A   Partly Cloudy
5:50 PM 39.2 °F 35.0 °F 32.0 °F 75% 30.06 in 6.2 mi WSW 5.8 mph - N/A   Partly Cloudy
6:20 PM 39.2 °F 35.0 °F 32.0 °F 75% 30.06 in 6.2 mi SW 5.8 mph - N/A   Partly Cloudy
6:50 PM 39.2 °F 35.0 °F 32.0 °F 75% 30.04 in 6.2 mi SSW 5.8 mph - N/A   Partly Cloudy
7:00 PM 38 °F - 33 °F 74% 30.09 in 8 mi SSW 6.7 mph - -   Scattered Clouds
7:20 PM 39.2 °F 34.2 °F 33.8 °F 81% 30.04 in 6.2 mi SSW 6.9 mph - N/A   Partly Cloudy
7:50 PM 39.2 °F 34.2 °F 33.8 °F 81% 30.04 in - SSW 6.9 mph - N/A   Clear
8:20 PM 39.2 °F 34.2 °F 33.8 °F 81% 30.04 in - SSW 6.9 mph - N/A   Clear
8:50 PM 39.2 °F 35.0 °F 35.6 °F 87% 30.04 in 3.7 mi South 5.8 mph - N/A Rain Light Rain
9:20 PM 37.4 °F 32.1 °F 35.6 °F 93% 30.01 in 3.7 mi SSW 6.9 mph - N/A Rain Light Rain
9:50 PM 37.4 °F 31.4 °F 35.6 °F 93% 30.01 in 3.7 mi South 8.1 mph - N/A Rain Light Rain
10:00 PM 38 °F - 36 °F 90% 30.05 in 4 mi South 6.7 mph - - Rain Light Rain
10:20 PM 37.4 °F 31.4 °F 35.6 °F 93% 30.01 in 5.0 mi SSW 8.1 mph - N/A Rain Light Rain
10:50 PM 37.4 °F 31.4 °F 35.6 °F 93% 29.98 in 4.3 mi South 8.1 mph - N/A Rain Light Rain
11:20 PM 37.4 °F 30.8 °F 35.6 °F 93% 29.98 in 4.3 mi South 9.2 mph - N/A Rain Light Rain
11:50 PM 37.4 °F 30.8 °F 35.6 °F 93% 29.95 in 5.0 mi South 9.2 mph - N/A Rain Light Rain